Detroit, MI

9:29 PM EST on December 07, 2016 (GMT -0500)
Detroit City

Weather History for KDET - February, 2013

Change the Weather History Date:

Tuesday, February 12, 2013

  Actual Average Record
Temperature  
Mean Temperature 32 °F -  
Max Temperature 34 °F 31 °F 60 °F (1999)
Min Temperature 28 °F 17 °F -2 °F (1981)
Degree Days  
Heating Degree Days 33    
Moisture  
Dew Point 22 °F    
Average Humidity 65    
Maximum Humidity 75    
Minimum Humidity 60    
Precipitation  
Precipitation 0.00 in - - ()
Sea Level Pressure  
Sea Level Pressure 29.97 in    
Wind  
Wind Speed 12 mph (West)    
Max Wind Speed 17 mph    
Max Gust Speed 26 mph    
Visibility 10 miles    
Events      
Averages and records for this station are not official NWS values.
T = Trace of Precipitation, MM = Missing Value Source: NWS Daily Summary

Daily Weather History Graph

Daily Weather History Graph

Search for Another Location

Airport or City:

Trip Planner

Search our weather history database for the weather conditions in past years. The results will help you decide how hot, cold, wet, or windy it might be!

Date:

Astronomy

Feb. 12, 2013 Rise Set
Actual Time 7:32 AM EST 6:00 PM EST
Civil Twilight 7:03 AM EST 6:29 PM EST
Nautical Twilight 6:30 AM EST 7:02 PM EST
Astronomical Twilight 5:57 AM EST 7:35 PM EST
Moon 8:24 AM EST (2/12) 9:05 PM EST (2/12)
Length of Visible Light 11h 26m
Length of Day
10h 28m
Waxing Crescent, 7% of the Moon is Illuminated
Feb 12
Waxing Crescent
Feb 17
First Quarter
Feb 25
Full
Mar 4
Last Quarter
Mar 11
New

Hourly Weather History & Observations

Time (EST) Temp. Windchill Dew Point Humidity Pressure Visibility Wind Dir Wind Speed Gust Speed Precip Events Conditions
12:53 AM 33.1 °F 22.2 °F 24.1 °F 70% 29.90 in 10.0 mi West 17.3 mph 25.3 mph N/A   Overcast
1:53 AM 32.0 °F 22.5 °F 25.0 °F 75% 29.91 in 10.0 mi West 12.7 mph 19.6 mph N/A   Overcast
2:45 AM 32.0 °F 22.1 °F 21.2 °F 64% 29.92 in 10.0 mi WNW 13.8 mph 23.0 mph N/A   Overcast
2:53 AM 32.0 °F 22.5 °F 23.0 °F 69% 29.95 in 10.0 mi West 12.7 mph 26.5 mph N/A   Overcast
3:06 AM 32.0 °F 22.5 °F 21.2 °F 64% 29.93 in 10.0 mi West 12.7 mph 26.5 mph N/A   Overcast
3:53 AM 32.0 °F 23.0 °F 21.9 °F 66% 29.95 in 10.0 mi West 11.5 mph 18.4 mph N/A   Overcast
4:53 AM 30.9 °F 20.7 °F 21.9 °F 69% 29.97 in 10.0 mi West 13.8 mph - N/A   Overcast
5:53 AM 30.9 °F 23.5 °F 21.9 °F 69% 29.99 in 10.0 mi West 8.1 mph 18.4 mph N/A   Overcast
6:53 AM 30.9 °F 21.2 °F 21.9 °F 69% 30.01 in 10.0 mi West 12.7 mph 18.4 mph N/A   Overcast
7:53 AM 30.9 °F 21.7 °F 21.0 °F 67% 30.03 in 10.0 mi WNW 11.5 mph - 0.00 in   Overcast
8:53 AM 30.9 °F 21.2 °F 21.9 °F 69% 30.04 in 10.0 mi West 12.7 mph 20.7 mph N/A   Overcast
9:53 AM 32.0 °F 25.6 °F 21.9 °F 66% 30.05 in 10.0 mi West 6.9 mph - N/A   Overcast
10:53 AM 32.0 °F 23.6 °F 21.9 °F 66% 30.06 in 10.0 mi WNW 10.4 mph - N/A   Overcast
11:53 AM 32.0 °F 23.6 °F 23.0 °F 69% 30.03 in 10.0 mi WSW 10.4 mph - N/A   Overcast
12:53 PM 32.0 °F 23.6 °F 21.9 °F 66% 30.03 in 10.0 mi West 10.4 mph 19.6 mph N/A   Overcast
1:44 PM 33.8 °F 27.0 °F 21.2 °F 60% 29.97 in 9.0 mi West 8.1 mph - N/A   Overcast
1:53 PM 33.1 °F 24.9 °F 21.9 °F 64% 29.99 in 10.0 mi WSW 10.4 mph - N/A   Overcast
2:53 PM 33.1 °F 25.5 °F 21.9 °F 64% 29.96 in 10.0 mi WNW 9.2 mph - N/A   Overcast
3:05 PM 33.8 °F 28.6 °F 21.2 °F 60% 29.95 in 10.0 mi West 5.8 mph - N/A   Overcast
3:53 PM 34.0 °F 25.5 °F 21.9 °F 61% 29.98 in 10.0 mi WSW 11.5 mph 16.1 mph N/A   Overcast
4:49 PM 33.8 °F 26.4 °F 21.2 °F 60% 29.96 in 10.0 mi WSW 9.2 mph - N/A   Overcast
4:53 PM 33.1 °F 24.4 °F 21.0 °F 61% 29.98 in 10.0 mi WSW 11.5 mph - N/A   Overcast
5:19 PM 33.8 °F 26.4 °F 21.2 °F 60% 29.97 in 10.0 mi WSW 9.2 mph - N/A   Overcast
5:45 PM 32.0 °F 23.6 °F 21.2 °F 64% 29.97 in 10.0 mi West 10.4 mph - N/A   Overcast
5:53 PM 32.0 °F 24.2 °F 21.0 °F 64% 29.99 in 10.0 mi West 9.2 mph - N/A   Overcast
6:53 PM 32.0 °F 25.6 °F 21.0 °F 64% 30.00 in 10.0 mi West 6.9 mph - N/A   Overcast
7:53 PM 32.0 °F 27.5 °F 21.0 °F 64% 29.98 in 10.0 mi West 4.6 mph - N/A   Overcast
8:53 PM 32.0 °F 24.8 °F 21.0 °F 64% 29.96 in 10.0 mi West 8.1 mph - N/A   Mostly Cloudy
9:53 PM 30.0 °F 21.1 °F 19.0 °F 64% 29.95 in 10.0 mi West 10.4 mph 16.1 mph N/A   Partly Cloudy
10:30 PM 30.2 °F 23.4 °F 19.4 °F 64% 29.92 in 10.0 mi WNW 6.9 mph - N/A   Mostly Cloudy
10:53 PM 30.0 °F 24.1 °F 19.9 °F 66% 29.94 in 10.0 mi West 5.8 mph - N/A   Overcast
11:53 PM 28.9 °F 21.9 °F 19.9 °F 69% 29.94 in 10.0 mi WNW 6.9 mph - N/A   Overcast